Weather Roundup
Issued by NWS Springfield, MO

Home | Current Version | Previous Version | Text Only | Print | Product List | Glossary On
Versions: 1 2 3 4 5 6 7 8 9 10 11 12 13 14 15 16 17 18 19 20 21 22 23 24 25 26 27 28 29 30 31 32 33 34 35 36 37 38 39 40 41 42 43 44 45 46 47 48 49 50
000
NZUS99 KSGF 290707
HRRSGF

HOURLY WEATHER
NATIONAL WEATHER SERVICE SPRINGFIELD MO
200 AM CDT SUN MAR 29 2015

......SGF CWA......

CITY           SKY/WX    TMP DP  RH WIND       PRES   REMARKS
SPRINGFIELD    CLEAR     35  30  82 SE22G31   30.11F WCI  23
JOPLIN         CLEAR     40  32  73 SE13      30.07F WCI  32
WEST PLAINS    CLEAR     32  28  85 SE5       30.23F WCI  27
ROLLA          CLEAR     34  27  75 S14       30.17F WCI  25
OSAGE BEACH    CLEAR     36  27  69 SE9       30.15F WCI  29
BRANSON        CLEAR     34  30  86 SE14      30.17F WCI  24

......SURROUNDING SGF CWA......

CITY           SKY/WX    TMP DP  RH WIND       PRES   REMARKS
CHANUTE        CLEAR     41  36  82 SE13      30.02F
PARSONS        CLEAR     45  40  82 SE6       30.04F
COFFEYVILLE    CLEAR     46  40  79 S10       30.04F
EMPORIA        CLEAR     41  36  82 SE13G21   29.97F
GROVE OK       CLEAR     45  37  76 SE5       30.09F
ROGERS AR      CLEAR     40  32  73 SE10      30.12F WCI  33
SILOAM SPRINGS CLEAR     43  30  61 SE13      30.12S
HARRISON AR    CLEAR     34  30  85 SE15      30.17F WCI  24
NEAR YELLVILLE CLEAR     34  27  75 SE5       30.23F WCI  30

......KANSAS AND MISSOURI......

CITY           SKY/WX    TMP DP  RH WIND       PRES   REMARKS
KANSAS CTY INT CLEAR     39  32  76 S18       29.99F WCI  30
DOWNTOWN KC    CLEAR     41  32  70 S10G18    30.03F
COLUMBIA       CLEAR     35  29  78 S15       30.15F WCI  25
SEDALIA        CLEAR     37  30  75 SE14      30.11F WCI  28
ST JOSEPH      CLEAR     41  32  70 S16       29.99F
ST LOUIS       CLEAR     37  16  42 S13       30.26F WCI  29
SPIRIT OF STL  CLEAR     35  18  49 SE6       30.24F WCI  30
KIRKSVILLE     CLEAR     33  25  72 S13       30.11F WCI  24
WICHITA        CLEAR     51  40  65 S15       29.93F
TOPEKA         CLEAR     41  33  73 SE10      29.98F
OLATHE         CLEAR     38  32  79 SE14G24   30.01F WCI  30

......TENNESSEE......

CITY           SKY/WX    TMP DP  RH WIND       PRES   REMARKS
MEMPHIS        CLEAR     36  28  73 E7        30.29F WCI  30
NASHVILLE      CLEAR     30  21  69 CALM      30.35S

......ARKANSAS.......

CITY           SKY/WX    TMP DP  RH WIND       PRES   REMARKS
FAYETTEVILLE   CLEAR     42  35  76 SE7       30.13F
FT SMITH       CLEAR     41  33  73 E15       30.18F
LITTLE ROCK    CLEAR     39  33  79 E6        30.27F WCI  35

......OKLAHOMA.......

CITY           SKY/WX    TMP DP  RH WIND       PRES   REMARKS
TULSA          CLEAR     48  40  73 S13G23    30.05S
PONCA CITY     CLEAR     52  42  69 SE16      29.98F
MCALESTER      CLEAR     51  42  71 SE5       30.08F
OKLAHOMA CITY  CLEAR     59  45  59 SE20      29.97F

......IOWA............

CITY           SKY/WX    TMP DP  RH WIND       PRES   REMARKS
DES MOINES     PTCLDY    38  24  57 S17       30.00F WCI  28
QUAD CITIES    PTCLDY    31  18  58 S13       30.15F WCI  21

......ILLINOIS........

CITY           SKY/WX    TMP DP  RH WIND       PRES   REMARKS
QUINCY         PTCLDY    33  19  56 S13       30.16F WCI  24
CHICAGO        PTCLDY    25  14  63 S7        30.23F WCI  17



USA.gov is the U.S. government's official web portal to all federal, state and local government web resources and services.